Dewpoint
-5 -4 -4 -5 -5 -7 -7 -4 -2 0 1 0 2 7 8 7 4 3 2 1 4 6 6 9 8 7 7 7 5 3 4 6 7 8 7 6 6 7 2 5 9 8 6 10
-4 -2 -3 -5 -5 -7 -7 -6 -4 -7 -4 -5 -5 -4 4 3 4 4 4 3 4 6 7 7 8 8 8 7 5 3 3 5 5 4 4 2 1 -1 0 0 5 6 7 9
-3 -3 -4 -4 -5 -6 -7 -6 -5 -2 -2 -4 -5 -4 -5 3 2 4 4 4 3 4 8 7 7 8 8 7 6 7 8 8 7 5 6 7 6 5 6 6 5 7 8 9
-3 -5 -4 -3 -4 -7 -6 -8 -5 -3 -2 -2 -4 1 -3 2 2 3 3 3 3 2 4 7 7 7 7 8 8 7 7 8 8 7 9 8 6 6 7 9 9 9 9 9
-2 -3 -4 -2 -6 -9 -6 -3 -2 -3 -4 -1 -3 -2 -6 -4 -1 3 4 3 3 3 3 5 7 7 7 7 8 8 8 8 8 9 8 9 6 8 7 8 8 9 10 9
-4 -5 -5 -4 -7 -7 -6 -2 -1 -3 -2 3 -1 -3 -0 1 1 -2 -0 3 3 3 3 3 5 6 7 8 8 9 8 9 9 9 9 9 9 7 9 9 9 9 9 8
-3 -4 -5 -6 -5 -6 -5 -2 2 3 4 5 -1 -3 -3 1 -1 -2 -3 -3 2 3 2 3 3 5 7 7 7 8 8 9 9 9 9 8 8 9 8 7 8 9 8 9
-1 1 -4 -5 -4 -3 -2 -2 3 10 11 6 2 0 -4 -4 -6 -7 -7 -7 -3 2 2 2 2 4 5 6 8 8 8 8 9 9 9 9 4 6 8 7 7 6 8 6
0 -1 -6 -5 -6 -4 -2 -0 -3 8 9 9 8 -1 -8 -7 -8 -8 -8 -5 -4 -4 2 2 2 2 4 6 7 8 9 8 9 9 9 9 4 5 7 6 6 6 5 7
-2 1 -3 -5 -5 -5 -4 -3 3 3 8 9 0 -2 -2 -3 -7 -7 -7 -6 -2 -2 -3 0 2 1 2 5 7 7 8 9 9 9 9 10 6 6 6 6 6 6 7 9
-3 -0 1 -3 -3 -3 -3 -1 1 2 2 7 6 2 2 2 2 -5 -7 -7 -6 -4 -1 0 -0 1 2 3 6 8 9 10 10 10 10 10 10 8 7 7 7 7 8 8
-4 -0 2 0 -4 -4 -4 -2 -1 5 3 6 10 4 -4 -2 -1 -5 -5 -6 -6 -5 -3 1 2 2 1 2 4 6 9 11 10 11 11 11 9 8 8 7 7 9 9 9
-2 -1 4 1 -1 -3 -2 -3 -2 -1 2 5 9 5 -5 -5 -6 -6 -7 -7 -6 -5 -4 -1 3 5 5 5 4 7 9 11 10 10 10 10 9 9 7 8 10 10 9 8
-0 -0 1 4 1 -0 -0 -3 -0 2 6 5 6 3 0 -2 -1 -1 -4 -7 -7 -5 -5 -3 3 5 7 7 7 7 9 10 10 10 10 11 10 9 9 10 9 9 9 8
1 2 0 -0 -3 -3 -1 -2 -3 -0 2 3 2 -1 -3 -4 0 1 -1 -4 -4 -5 -5 -4 -0 6 8 9 9 9 10 10 10 10 10 10 10 10 10 9 9 8 8 8
1 2 2 3 -1 -3 -2 -4 -3 -4 -4 -4 -4 -2 -5 -6 -2 -2 -3 -6 -4 -4 -5 -4 -1 6 9 10 10 11 11 11 10 10 10 10 10 9 8 8 8 7 7 7
2 3 4 5 1 -0 2 -1 -4 -3 -5 -5 -3 -4 -6 -6 -5 -2 -4 -7 -6 -4 -1 1 2 7 9 9 10 10 10 10 9 9 8 8 7 7 6 6 6 6 5 5
3 3 3 6 6 5 -1 -4 -5 -4 -6 -6 -6 -6 -7 -7 -7 -6 -5 -4 -2 -0 2 4 6 8 8 9 9 9 8 7 7 6 5 5 4 4 4 4 3 2 1 -0
3 6 9 8 6 2 -3 -3 -2 -2 -2 -5 -5 -6 -7 -8 -7 -2 -2 -2 -1 1 3 5 6 7 7 7 6 5 5 4 4 4 3 3 2 2 2 2 1 0 -0 -2
1 2 7 8 7 7 2 -2 -5 -4 0 -3 -5 -4 -4 -4 4 -0 -1 0 2 3 4 4 5 5 4 4 4 3 3 2 2 2 2 2 1 1 1 1 0 -0 -0 -0
6 6 8 8 8 6 -0 -3 -5 1 3 -3 -4 -4 -4 -0 -1 -2 -1 1 2 3 3 3 3 3 2 2 2 1 1 1 1 1 1 1 1 1 0 -1 -0 -0 -1 -2
7 8 8 8 9 8 -1 -0 0 1 -3 -2 -3 -4 -2 -4 -1 -1 0 2 2 2 2 2 2 1 1 1 1 1 1 1 1 1 1 1 0 -0 -0 -1 -2 -4 -4 -4
6 4 6 6 7 4 4 -1 -2 -3 -2 -2 -2 -2 -2 -2 1 1 1 2 1 1 1 1 1 1 1 1 1 1 1 1 1 0 -0 -1 -4 -4 -5 -5 -6 -6 -4 -4
-2 2 4 4 1 1 4 1 0 -1 1 0 -1 -1 -1 -1 1 1 1 1 1 0 1 1 1 1 1 1 1 1 1 0 -1 -2 -4 -5 -6 -6 -7 -7 -8 -7 -9 -10
1 3 3 3 1 -1 -1 -1 -1 1 1 1 -0 -0 -1 -1 2 1 1 1 0 0 0 1 1 1 1 1 1 0 -1 -2 -3 -4 -5 -6 -8 -10 -11 -12 -14 -16 -17 -23
-2 -1 4 5 -0 4 2 1 0 1 1 -0 0 1 -0 -1 2 1 1 1 0 0 0 1 1 1 0 -0 -1 -2 -4 -4 -5 -6 -7 -11 -12 -12 -12 -14 -17 -20 -23 -29
Wind_Speed
19 11 15 18 18 19 15 9 21 7 6 11 19 22 22 28 22 18 17 22 19 19 18 20 23 18 23 20 26 32 29 25 24 21 25 23 24 23 32 24 22 19 18 21
15 18 18 18 19 17 14 13 18 5 11 5 9 11 20 18 22 22 21 23 24 23 26 26 27 24 25 31 32 32 30 30 33 25 24 23 26 24 25 29 24 23 19 21
19 17 19 17 18 11 14 16 16 13 6 9 10 12 4 15 19 22 25 24 27 30 32 30 31 33 31 28 33 32 28 24 24 23 19 23 20 17 22 17 21 22 21 22
19 22 17 10 13 14 15 14 13 10 13 9 5 11 7 18 15 15 19 22 22 27 33 35 33 34 35 35 31 30 30 29 29 26 28 28 26 27 26 22 20 19 20 24
19 21 17 13 15 16 13 1 10 13 13 14 14 7 5 10 13 18 17 23 25 26 30 38 39 39 37 38 37 33 31 32 31 29 30 28 26 25 25 27 27 24 24 27
21 22 16 15 15 16 9 10 14 11 11 11 15 11 6 2 6 9 20 27 25 27 30 31 38 38 40 37 40 40 36 35 36 27 26 24 27 25 23 21 23 27 29 30
20 23 20 16 17 17 9 11 8 9 9 9 17 11 6 11 17 16 14 21 30 31 28 30 35 40 41 42 41 41 40 38 35 32 29 28 27 29 31 29 25 26 27 31
17 15 21 14 17 13 12 15 8 4 3 9 14 5 7 17 10 5 1 5 16 32 34 32 32 36 40 42 43 43 42 39 38 35 33 34 27 35 39 32 30 32 30 36
16 23 18 20 15 18 14 15 15 7 3 5 10 7 7 10 6 4 5 2 8 12 33 37 37 38 37 41 43 43 41 38 38 39 42 42 30 31 39 35 33 31 29 33
18 11 18 18 19 19 16 12 11 7 5 6 8 10 3 4 5 8 4 7 3 2 10 24 31 31 39 40 42 42 41 40 38 38 43 47 35 34 32 31 31 31 30 33
19 12 12 16 16 16 10 12 8 13 11 6 4 5 7 5 11 3 5 7 6 5 2 4 7 10 24 38 35 42 43 40 37 41 44 43 39 38 34 26 26 27 29 27
22 9 13 17 12 15 18 16 17 10 9 5 1 6 8 8 15 4 1 6 5 2 2 6 6 7 11 15 16 33 39 39 31 39 40 33 39 38 34 27 23 24 25 24
19 16 8 17 18 17 15 19 14 15 11 12 7 8 1 4 3 4 9 11 15 13 10 9 6 7 8 11 15 15 27 27 26 30 31 26 27 36 33 26 23 24 25 26
11 13 18 14 13 10 16 18 17 13 8 4 10 12 15 14 2 12 16 19 17 13 13 10 14 11 10 12 14 16 17 19 19 24 25 23 24 26 29 26 23 23 24 24
5 16 20 20 19 19 18 19 19 20 22 15 15 16 15 16 12 7 30 7 6 6 5 10 9 15 14 14 16 16 17 19 16 19 23 25 26 30 27 25 22 20 20 19
5 11 14 21 21 20 23 19 22 19 20 20 18 19 16 16 7 3 24 9 11 10 9 10 14 17 15 15 16 20 23 24 19 19 22 23 21 17 14 15 17 17 17 15
12 8 14 16 17 14 21 19 17 17 19 13 16 12 10 14 8 22 27 15 16 12 8 9 13 18 20 18 21 20 19 19 17 18 18 14 13 14 16 16 16 14 13 12
2 13 10 7 1 21 11 14 16 16 15 16 18 15 13 14 17 13 3 3 9 11 13 13 15 17 20 20 19 20 18 20 20 17 16 17 17 15 14 13 13 13 13 12
8 6 3 4 14 17 17 17 12 13 17 20 22 18 17 20 21 4 5 7 10 16 19 19 19 21 22 24 23 24 23 22 21 19 17 15 14 13 13 12 12 11 10 10
10 9 4 3 11 16 6 12 18 15 16 14 13 13 13 15 5 5 14 11 16 20 20 21 22 23 24 24 25 26 23 22 20 19 17 16 14 12 13 13 12 12 12 12
6 3 10 8 7 5 7 13 22 19 8 9 13 15 15 3 2 7 10 17 20 23 24 24 24 25 25 25 25 25 24 22 20 18 17 16 16 15 12 11 12 12 10 7
7 6 5 5 4 11 8 9 15 8 29 13 16 15 8 5 4 9 23 25 25 25 25 26 26 25 24 24 25 24 23 21 21 21 20 18 14 11 10 11 12 10 10 11
7 9 5 6 3 19 31 20 22 16 15 15 17 12 12 7 13 20 25 26 27 27 28 26 26 26 24 22 23 23 23 23 23 20 16 13 15 15 14 12 12 11 10 12
5 10 4 2 7 17 30 22 17 20 19 23 18 13 12 10 19 23 25 27 29 29 29 27 26 25 24 22 22 24 24 21 18 19 19 19 18 17 14 14 13 14 13 11
5 14 12 12 13 17 31 21 16 18 15 17 16 13 10 12 24 27 27 29 29 29 28 27 27 25 23 22 22 18 17 19 21 21 21 20 19 17 18 15 13 12 8 9
9 9 6 5 12 3 6 21 15 15 18 21 16 14 15 15 19 23 26 27 27 28 27 25 24 25 23 20 19 18 18 19 21 21 19 18 19 14 7 8 8 7 8 9
Wind_Direction
217 229 236 240 240 252 281 279 257 138 213 222 264 172 196 201 175 185 160 148 160 164 155 156 165 164 153 175 156 159 161 169 179 184 181 184 189 198 204 225 215 229 225 217
229 225 240 249 264 265 277 275 279 224 192 224 281 284 172 174 174 179 173 172 175 182 171 171 180 174 173 177 164 163 163 172 180 192 194 202 203 214 224 229 229 233 224 220
223 236 234 219 251 258 258 259 268 342 235 247 263 271 213 169 187 179 178 186 186 179 170 175 176 179 182 192 181 177 189 193 193 192 188 205 215 221 221 230 228 226 221 216
235 237 261 246 248 246 242 248 287 221 275 269 299 278 191 168 179 181 185 190 194 185 177 178 184 187 188 194 200 200 195 199 203 203 204 205 205 210 214 214 218 236 232 229
236 243 239 232 239 230 242 54 295 290 264 279 268 242 265 202 195 180 190 195 194 196 189 185 187 195 203 196 202 204 205 210 214 213 203 208 208 217 223 227 220 225 229 240
240 246 236 228 238 242 232 180 233 258 261 265 267 253 225 132 321 226 185 189 198 198 198 196 191 194 200 206 204 208 206 209 214 220 210 213 220 219 224 230 230 226 239 247
228 243 228 216 227 224 218 251 243 238 239 243 249 253 229 168 204 236 178 194 190 199 203 198 194 192 196 201 209 207 210 210 211 222 219 208 221 229 225 227 235 236 247 254
225 224 235 220 240 216 212 231 233 179 311 303 324 254 245 179 171 100 121 267 202 194 196 202 205 198 197 201 206 208 211 213 210 213 218 216 221 234 235 234 231 240 253 265
226 234 218 218 212 245 216 219 242 96 248 266 240 249 224 173 158 158 190 79 266 237 200 201 205 203 198 199 202 207 206 215 212 212 219 223 230 229 233 242 241 250 251 254
238 236 253 201 202 217 243 235 243 195 202 222 261 260 354 130 235 156 208 182 117 257 238 216 206 213 201 200 202 209 213 211 209 213 220 225 231 230 234 239 244 252 257 258
233 240 239 239 197 210 215 238 222 258 238 246 267 284 113 345 339 263 173 149 133 143 196 279 262 231 217 213 208 206 210 201 207 213 221 226 228 229 234 244 245 250 254 259
219 219 250 230 210 214 246 222 225 245 221 256 285 263 183 190 210 189 229 240 150 130 142 181 215 232 236 232 210 209 208 199 223 219 227 230 232 230 232 246 239 246 250 251
195 224 217 251 223 212 226 245 230 237 239 226 167 244 292 320 273 189 197 232 178 182 214 186 192 198 202 213 213 195 194 204 220 226 231 233 236 225 234 251 247 242 241 244
207 204 219 236 231 215 233 232 209 250 249 256 281 254 254 274 13 333 280 207 206 183 195 211 184 194 194 193 196 199 205 211 222 221 219 221 201 217 233 240 238 237 240 249
191 218 217 243 241 241 221 232 237 220 227 227 225 244 258 261 189 194 241 74 142 177 233 204 207 172 182 179 178 183 182 192 191 187 201 203 213 222 222 227 231 239 244 245
227 229 233 247 254 242 266 239 230 229 238 246 248 250 241 266 148 271 267 215 189 229 233 218 204 175 173 178 173 181 187 190 188 150 178 196 206 219 227 224 224 224 221 228
224 215 226 239 237 250 260 249 246 240 238 252 254 265 258 265 236 200 225 214 239 202 191 203 203 169 168 172 180 175 190 189 178 167 178 187 187 176 176 190 205 213 219 219
224 221 224 223 240 234 255 251 254 261 269 273 278 265 260 250 265 271 302 97 167 172 180 183 179 167 166 170 165 168 161 162 173 175 174 171 183 190 192 193 194 195 197 196
333 353 346 219 229 252 248 243 250 251 256 249 247 257 260 253 249 152 174 198 193 184 176 174 173 167 163 164 161 158 157 156 158 161 162 170 176 173 178 182 183 179 178 176
269 274 245 253 218 234 221 250 236 246 257 269 266 266 260 252 181 223 167 171 167 167 170 169 168 163 159 158 160 157 156 155 156 158 162 165 168 167 168 164 165 162 156 148
197 256 259 259 242 270 205 222 246 250 241 247 332 256 256 298 322 156 172 168 170 167 166 167 165 164 163 162 161 157 158 160 162 159 153 151 166 181 183 168 160 156 167 175
162 180 226 217 244 246 285 302 232 249 233 259 286 278 301 301 146 184 173 169 172 172 172 168 166 167 166 166 166 161 160 159 155 158 164 172 179 165 145 137 133 139 148 178
175 178 195 242 260 316 300 257 280 286 292 274 299 247 270 215 179 180 174 176 177 175 172 171 171 167 166 166 168 159 158 166 171 172 171 162 138 141 149 151 147 153 174 175
221 184 203 65 271 276 274 321 272 281 302 304 285 289 249 222 184 180 179 179 178 179 176 174 172 168 165 167 168 177 178 175 162 158 157 152 153 154 151 167 162 195 199 203
194 163 190 225 235 255 287 289 292 323 309 306 288 295 281 250 188 184 185 183 181 181 180 177 171 167 165 169 178 180 162 160 161 160 158 167 164 164 167 184 194 210 218 227
225 230 227 228 259 247 318 315 316 284 290 314 285 275 273 262 196 192 189 185 183 184 178 173 170 167 163 165 159 160 165 169 167 164 173 167 165 156 170 200 215 241 251 255
Height
1476 1479 1477 1467 1460 1456 1454 1456 1456 1451 1452 1455 1455 1463 1477 1470 1474 1478 1477 1481 1485 1488 1492 1493 1497 1501 1504 1508 1511 1514 1517 1522 1526 1531 1536 1540 1542 1546 1548 1551 1552 1553 1557 1559
1472 1470 1463 1459 1454 1452 1451 1455 1451 1441 1443 1448 1447 1445 1452 1456 1461 1468 1473 1477 1481 1485 1489 1494 1497 1501 1504 1507 1510 1514 1518 1522 1526 1530 1534 1538 1540 1543 1547 1548 1549 1551 1553 1555
1466 1457 1453 1453 1453 1454 1455 1456 1450 1454 1451 1444 1446 1448 1442 1452 1455 1460 1465 1469 1473 1477 1483 1490 1495 1499 1502 1506 1509 1512 1517 1521 1524 1528 1531 1535 1539 1541 1543 1545 1546 1549 1549 1552
1455 1451 1449 1452 1454 1452 1459 1446 1447 1454 1454 1460 1443 1461 1442 1443 1448 1453 1458 1463 1467 1471 1476 1483 1490 1494 1498 1502 1506 1510 1514 1518 1521 1524 1527 1530 1533 1535 1536 1539 1542 1544 1546 1547
1452 1449 1449 1452 1450 1446 1451 1449 1452 1449 1451 1449 1444 1453 1432 1435 1441 1445 1449 1455 1460 1465 1470 1475 1480 1485 1490 1497 1499 1504 1509 1512 1515 1520 1523 1526 1528 1531 1534 1535 1537 1539 1540 1541
1443 1441 1442 1443 1444 1443 1441 1450 1452 1449 1450 1465 1445 1445 1446 1445 1444 1437 1439 1447 1454 1459 1463 1469 1473 1478 1483 1488 1494 1499 1503 1507 1511 1515 1520 1524 1528 1528 1527 1531 1533 1533 1534 1536
1442 1440 1436 1439 1444 1440 1443 1451 1467 1471 1468 1468 1439 1440 1430 1435 1435 1434 1433 1438 1444 1451 1458 1461 1466 1470 1476 1480 1484 1490 1495 1500 1506 1508 1513 1516 1518 1523 1525 1522 1526 1530 1529 1529
1446 1451 1435 1436 1438 1441 1446 1449 1465 1495 1503 1471 1449 1448 1432 1420 1425 1428 1431 1434 1437 1442 1448 1454 1458 1462 1467 1472 1478 1483 1487 1493 1499 1503 1504 1506 1506 1510 1515 1517 1518 1521 1521 1524
1441 1438 1427 1431 1435 1437 1441 1449 1442 1479 1491 1495 1479 1436 1419 1419 1424 1428 1430 1433 1436 1437 1440 1443 1448 1450 1456 1463 1469 1473 1479 1485 1491 1495 1496 1498 1500 1502 1508 1510 1513 1513 1514 1517
1429 1441 1425 1427 1431 1433 1435 1435 1451 1448 1476 1479 1443 1436 1433 1429 1427 1426 1431 1430 1433 1435 1436 1438 1441 1446 1442 1450 1456 1463 1469 1471 1481 1489 1491 1492 1497 1498 1502 1505 1506 1507 1509 1510
1424 1431 1436 1423 1424 1433 1436 1439 1439 1441 1441 1460 1461 1445 1438 1446 1434 1426 1428 1430 1433 1436 1437 1438 1439 1441 1445 1451 1450 1451 1459 1468 1473 1477 1481 1487 1490 1493 1496 1499 1500 1501 1503 1506
1418 1425 1438 1435 1421 1425 1428 1429 1433 1447 1448 1446 1455 1449 1420 1425 1427 1425 1428 1430 1432 1435 1437 1439 1441 1442 1443 1446 1450 1450 1456 1462 1467 1471 1475 1480 1479 1487 1490 1493 1496 1497 1498 1501
1411 1422 1443 1433 1426 1419 1425 1422 1422 1426 1429 1441 1467 1452 1418 1419 1422 1423 1425 1425 1427 1431 1435 1438 1441 1443 1444 1445 1448 1452 1454 1457 1463 1467 1471 1476 1477 1482 1485 1488 1490 1491 1493 1495
1404 1412 1421 1435 1424 1419 1425 1418 1418 1426 1440 1442 1447 1434 1425 1418 1422 1423 1422 1420 1422 1426 1430 1434 1437 1441 1443 1445 1447 1449 1452 1455 1460 1464 1467 1470 1474 1479 1482 1483 1485 1487 1489 1491
1405 1414 1416 1413 1410 1410 1413 1415 1415 1420 1424 1428 1426 1423 1417 1414 1417 1424 1426 1417 1421 1424 1428 1430 1434 1437 1442 1444 1446 1449 1452 1455 1457 1461 1464 1467 1470 1474 1477 1479 1481 1483 1485 1486
1403 1411 1413 1415 1410 1408 1412 1404 1406 1407 1410 1409 1410 1412 1406 1407 1411 1416 1422 1417 1420 1424 1426 1429 1431 1434 1439 1443 1446 1447 1448 1451 1453 1456 1460 1463 1468 1470 1472 1474 1476 1477 1478 1481
1406 1407 1415 1419 1411 1414 1420 1407 1401 1401 1400 1402 1410 1404 1401 1403 1404 1408 1407 1408 1414 1418 1423 1428 1431 1431 1435 1440 1442 1444 1446 1449 1452 1455 1457 1461 1464 1466 1469 1470 1471 1474 1476 1478
1400 1405 1408 1420 1425 1429 1400 1396 1395 1397 1398 1396 1397 1396 1396 1398 1400 1400 1403 1408 1412 1415 1421 1426 1430 1431 1434 1437 1441 1443 1447 1449 1450 1453 1456 1459 1461 1463 1465 1468 1469 1472 1473 1475
1411 1414 1419 1419 1419 1408 1396 1396 1397 1398 1401 1394 1394 1393 1392 1393 1395 1399 1404 1407 1409 1413 1418 1423 1427 1430 1433 1435 1438 1442 1445 1447 1449 1452 1454 1457 1459 1461 1463 1465 1467 1469 1471 1473
1417 1419 1430 1417 1417 1418 1398 1394 1390 1392 1402 1388 1388 1388 1388 1389 1401 1397 1400 1405 1407 1411 1417 1421 1426 1429 1432 1434 1437 1440 1444 1446 1448 1450 1453 1456 1458 1460 1461 1463 1465 1468 1470 1473
1423 1422 1427 1418 1416 1401 1388 1388 1389 1405 1403 1385 1384 1383 1384 1386 1388 1391 1396 1404 1408 1412 1415 1419 1424 1427 1430 1433 1435 1438 1440 1442 1445 1448 1451 1454 1456 1458 1460 1462 1465 1468 1470 1472
1416 1427 1423 1415 1414 1413 1380 1383 1389 1385 1380 1382 1384 1383 1383 1385 1387 1390 1395 1401 1406 1410 1414 1418 1422 1426 1429 1431 1433 1434 1437 1440 1443 1446 1449 1452 1454 1456 1459 1462 1465 1468 1470 1472
1403 1404 1413 1411 1396 1390 1393 1383 1381 1378 1379 1382 1382 1383 1382 1383 1387 1390 1394 1398 1404 1409 1412 1417 1421 1423 1426 1429 1432 1433 1436 1437 1439 1442 1446 1449 1453 1457 1460 1463 1466 1468 1468 1469
1382 1390 1401 1403 1391 1391 1392 1382 1381 1382 1382 1381 1379 1378 1379 1381 1384 1389 1393 1397 1401 1405 1409 1413 1417 1422 1425 1428 1430 1431 1432 1434 1437 1441 1444 1447 1450 1454 1457 1460 1462 1462 1463 1464
1378 1386 1387 1390 1385 1383 1380 1379 1379 1380 1379 1378 1378 1379 1379 1380 1380 1384 1390 1394 1398 1403 1407 1410 1413 1418 1424 1428 1428 1431 1434 1437 1438 1440 1442 1444 1448 1450 1452 1454 1456 1458 1460 1461
1373 1375 1381 1384 1382 1383 1383 1381 1380 1381 1378 1376 1375 1377 1378 1379 1380 1384 1388 1392 1397 1403 1406 1409 1413 1415 1420 1425 1430 1433 1435 1437 1437 1439 1440 1442 1445 1448 1449 1452 1454 1455 1456 1457